Regional Weather Roundup
Issued by NWS Cleveland, OH

Home | Current Version | Previous Version | Graphics & Text | Print | Product List | Glossary On
Versions: 1 2 3 4 5 6 7 8 9 10 11 12 13 14 15 16 17 18 19 20 21 22 23 24 25 26 27 28 29 30 31 32 33 34 35 36 37 38 39 40 41 42 43 44 45 46 47 48 49 50
000
ASUS41 KCLE 211910
RWRCLE
OHIO REGIONAL WEATHER ROUNDUP
NATIONAL WEATHER SERVICE WILMINGTON, OH
300 PM EDT SAT OCT 21 2017

NOTE: "FAIR" INDICATES FEW OR NO CLOUDS BELOW 12,000 FEET WITH NO
SIGNIFICANT WEATHER AND/OR OBSTRUCTIONS TO VISIBILITY.

OHZ001>008-015>018-024>027-034-035-043-044-212000-
   NORTHWEST OHIO

CITY           SKY/WX    TMP DP  RH WIND       PRES   REMARKS
DEFIANCE       FAIR      73  50  44 S9        30.17F
FINDLAY        FAIR      77  48  35 SW12      30.18F
TOLEDO EXPRESS FAIR      75  55  49 SW7       30.17F
TOLEDO EXEC    FAIR      75  53  46 S8        30.19F
LIMA           FAIR      74  49  41 S9        30.19S
$$

OHZ009>014-019>023-028>033-038-089-212000-
   NORTHEAST OHIO

CITY           SKY/WX    TMP DP  RH WIND       PRES   REMARKS
CLE-HOPKINS    PTSUNNY   76  48  37 S7        30.23F
CLE-LAKEFRONT  FAIR      74  47  38 SE8       30.21F
CUY CO. ARPT   PTSUNNY   73  48  40 S9        30.24F
LORAIN-ELYRIA  FAIR      74  46  36 S9        30.22F
ASHTABULA      FAIR      72  46  39 S10       30.25F
AKRON-CANTON   PTSUNNY   72  48  42 S7        30.25F
WOOSTER        FAIR      74  47  38 S6        30.24F
MANSFIELD      FAIR      74  49  41 S8        30.23F
YOUNGSTOWN     PTSUNNY   72  48  42 VRB5      30.26F
$$

OHZ042-051>053-060>062-070>072-077>081-212000-
  SOUTHWEST OHIO

CITY           SKY/WX    TMP DP  RH WIND       PRES   REMARKS
CINC-COVINGTON CLOUDY    71  50  47 SW9       30.22F
CINC-LUNKEN    FAIR      72  54  53 S6        30.23S
HAMILTON       FAIR      73  49  42 SW6       30.22F
DAYTON         PTSUNNY   70  50  49 S10       30.21F
WRIGHT-PAT AFB PTSUNNY   73  44  35 S12       30.21F
DAYTON GENERAL FAIR      70  46  42 S9        30.21F
WILMINGTON     FAIR      70  49  47 SW8       30.23S HAZE
$$

OHZ036-037-039>041-045>050-054>059-063>069-073>076-082>088-212000-
  CENTRAL AND SOUTHEAST OHIO

CITY           SKY/WX    TMP DP  RH WIND       PRES   REMARKS
COLUMBUS       PTSUNNY   74  52  46 S9        30.22F
OSU AIRPORT    FAIR      73  55  53 SE7       30.22F
BOLTON FIELD   SUNNY     73  52  46 S6        30.23F
RICKENBACK AFB FAIR      72  53  52 S7        30.23S
NEWARK         FAIR      75  50  41 SE5       30.22F
MARION         FAIR      74  47  38 S9        30.21F
LANCASTER      FAIR      73  54  51 SW7       30.24S
ZANESVILLE     FAIR      72  51  47 S5        30.24F
NEW PHILLY     FAIR      72  50  45 SE6       30.25F
$$




USA.gov is the U.S. government's official web portal to all federal, state and local government web resources and services.